This demonstration page uses our WeatherBlox Daily Observations layout. Learn more.

Left ArrowRight Arrow

Hourly Observations for November 7, 2015

Temp ( °F °C ) Dew Point ( °F °C ) Humidity (%) Winds ( mph kmh ) Pressure ( in mb ) Visibility ( mi km ) Precip ( " mm )
12:53 am 00:53 Clear 46 7.8 43 6.1 89 89 Calm 30.19 1022 10 16 0.00 0.00
1:53 am 01:53 Clear 47 8.3 43 6.1 86 86 WNW 5 7 30.19 1023 10 16 0.00 0.00
2:53 am 02:53 Clear 48 8.9 42 5.6 80 80 WNW 6 9 30.21 1023 10 16 0.00 0.00
3:53 am 03:53 Clear 47 8.3 41 5 80 80 WNW 5 7 30.22 1023 10 16 0.00 0.00
4:53 am 04:53 Clear 45 7.2 40 4.4 83 83 NW 6 9 30.23 1024 10 16 0.00 0.00
5:53 am 05:53 Clear 43 6.1 40 4.4 89 89 Calm 30.26 1025 10 16 0.00 0.00
6:53 am 06:53 Clear 42 5.6 39 3.9 89 89 Calm 30.27 1025 10 16 0.00 0.00
7:53 am 07:53 Sunny 44 6.7 40 4.4 85 85 Calm 30.29 1026 10 16 0.00 0.00
8:53 am 08:53 Sunny 45 7.2 39 3.9 80 80 WNW 6 9 30.31 1026 10 16 0.00 0.00
9:53 am 09:53 Sunny 50 10 39 3.9 66 66 NNW 8 13 30.31 1027 10 16 0.00 0.00
10:53 am 10:53 Sunny 52 11.1 38 3.3 59 59 NW 8 13 30.32 1027 10 16 0.00 0.00
11:53 am 11:53 Sunny 55 12.8 36 2.2 49 49 NW 13 20 30.31 1026 10 16 0.00 0.00
12:53 pm 12:53 Sunny 55 12.8 35 1.7 47 47 NW 8 13 30.29 1026 10 16 0.00 0.00
1:53 pm 13:53 Sunny 55 12.8 33 0.6 44 44 WNW 9 15 30.28 1026 10 16 0.00 0.00
2:53 pm 14:53 Sunny 56 13.3 32 0 40 40 WNW 8 13 30.28 1025 10 16 0.00 0.00
3:53 pm 15:53 Sunny 56 13.3 30 -1.1 37 37 WNW 8 13 30.29 1026 10 16 0.00 0.00
4:53 pm 16:53 Sunny 53 11.7 30 -1.1 41 41 NW 13 20 30.30 1026 10 16 0.00 0.00
5:53 pm 17:53 Clear 50 10 31 -0.6 48 48 NNW 6 9 30.33 1027 10 16 0.00 0.00
6:53 pm 18:53 Clear 46 7.8 33 0.6 61 61 NNW 6 9 30.36 1028 10 16 0.00 0.00
7:53 pm 19:53 Clear 41 5 35 1.7 79 79 Calm 30.37 1028 10 16 0.00 0.00
8:53 pm 20:53 Clear 38 3.3 33 0.6 83 83 Calm 30.38 1029 10 16 0.00 0.00
9:53 pm 21:53 Clear 37 2.8 34 1.1 89 89 Calm 30.40 1029 10 16 0.00 0.00
10:53 pm 22:53 Clear 35 1.7 33 0.6 93 93 Calm 30.41 1030 10 16 0.00 0.00
11:53 pm 23:53 Clear 34 1.1 32 0 92 92 Calm 30.41 1030 10 16 0.00 0.00

Powered by AerisWeather